Regional Weather Roundup
Issued by NWS

Home | Current Version | Previous Version | Graphics & Text | Print | Product List | Glossary On
Versions: 1 2 3 4 5 6 7 8 9 10 11 12 13 14 15 16 17 18 19 20 21 22 23 24 25 26 27
000
ASUS45 KTFX 240510
RWRMT
MONTANA REGIONAL WEATHER ROUNDUP
NATIONAL WEATHER SERVICE GREAT FALLS MT
1100 PM MDT MON MAY 23 2016

NOTE: "FAIR" INDICATES FEW OR NO CLOUDS BELOW 12000 FEET WITH NO
SIGNIFICANT WEATHER AND/OR OBSTRUCTIONS TO VISIBILITY.

MTZ001>007-043-240600-
WEST OF THE DIVIDE

CITY           SKY/WX    TMP DP  RH WIND       PRES   REMARKS
KALISPELL      LGT RAIN  45  45 100 SE12      29.88R
MISSOULA       LGT RAIN  45  43  93 CALM      29.93R
BUTTE          LGT RAIN  39  35  86 CALM      29.93R
MULLAN PASS    LGT RAIN  34  34 100 SW6       29.88S VSB 1/4 WCI  29
ANACONDA         N/A     39  37  93 SW3       29.92S
DEER LODGE       N/A     41  39  93 CALM      29.93S
EUREKA           N/A     46  43  87 E6        29.87R
HAMILTON         N/A     45  43  93 CALM      29.92R
LIBBY            N/A     46  45  93 CALM      29.88R
$$

MTZ008-052>055-240600-
SOUTHWEST MONTANA

CITY           SKY/WX    TMP DP  RH WIND       PRES   REMARKS
BOZEMAN        LGT RAIN  42  39  89 E5        29.94R
DILLON         CLOUDY    42  36  79 CALM      29.90R
ENNIS          CLOUDY    41  37  87 N6        29.95F
$$

MTZ009-010-012-014-046-048-049-054-240600-
EAST SLOPES AND CENTRAL MONTANA

CITY           SKY/WX    TMP DP  RH WIND       PRES   REMARKS
CUT BANK       CLOUDY    40  38  93 NW10      29.87R
GREAT FALLS    CLOUDY    43  41  93 CALM      29.88S
MALMSTROM AFB  MOCLDY    43  43 100 S3        29.88S
HELENA         CLOUDY    46  37  71 NW6       29.89R
CHOTEAU          N/A     43  41  93 CALM      29.89R
$$

MTZ011-013-016-021-045-047-050-051-240600-
NORTH CENTRAL MONTANA

CITY           SKY/WX    TMP DP  RH WIND       PRES   REMARKS
HAVRE          CLOUDY    48  42  80 W8        29.81R
LEWISTOWN      CLOUDY    45  38  76 W9        29.87R
N BAR RANCH    MOCLDY    41  37  87 NW8       29.88R
CHINOOK          N/A     50  43  76 W8        29.81R
$$

MTZ017>020-022>027-061-062-240600-
NORTHEAST MONTANA

CITY           SKY/WX    TMP DP  RH WIND       PRES   REMARKS
GLASGOW        PTCLDY    49  41  74 W9        29.77R
JORDAN           N/A     46  41  82 W5        29.81R
SIDNEY         CLEAR     52  40  63 W8        29.78R
WOLF POINT     MOCLDY    54  45  71 W8        29.77R
PLENTYWOOD       N/A     50  43  76 SW7       29.74S
POPLAR           N/A     52  43  71 SW5       29.77R
$$

MTZ028>42-056>058-240600-
SOUTHCENTRAL AND SOUTHEAST MONTANA

CITY           SKY/WX    TMP DP  RH WIND       PRES   REMARKS
BAKER          CLEAR     46  36  68 W6        29.83R
BILLINGS       CLOUDY    50  38  63 N5        29.87S
LIVINGSTON     CLOUDY    44  35  70 W12       29.91R
MILES CITY     PTCLDY    51  39  63 NW7       29.83R
FORSYTH          N/A     54  41  62 SW5       29.85R
$$

REGIONAL REPORTS...DAKOTAS

CITY           SKY/WX    TMP DP  RH WIND       PRES   REMARKS
WILLISTON      CLEAR     53  39  59 W9        29.76R
MINOT          PTCLDY    54  43  66 CALM      29.74R
DICKINSON      CLEAR     50  34  54 W5        29.78R
BEACH            N/A     45  37  76 CALM      29.83S
CROSBY           N/A     48  41  76 SW9       29.75S
WATFORD CITY     N/A     48  37  66 SW6       29.78R
BISMARCK       CLOUDY    60  46  59 SE5       29.77S
GRAND FORKS    CLOUDY    61  49  64 N9        29.71F
FARGO          PTCLDY    67  47  48 CALM      29.70R
BUFFALO SD       N/A     54  36  50 N16       29.75R
RAPID CITY     CLOUDY    59  32  36 W8        29.81R
$$

REGIONAL REPORTS...WYOMING/IDAHO/WASHINGTON

CITY           SKY/WX    TMP DP  RH WIND       PRES   REMARKS
GILLETTE       CLEAR     44  32  62 W5        29.88R
SHERIDAN       CLEAR     44  35  70 CALM      29.88R
BUFFALO WY       N/A     50  33  52 MISG      29.90R
CODY           CLEAR     46  36  66 CALM      29.88R
YELLOWSTONE LA   N/A     29  26  89 CALM      29.97R
IDAHO FALLS    CLEAR     51  33  50 S8        29.88R
SALMON         CLOUDY    46  37  71 S3        29.86S
BOISE          CLOUDY    59  35  40 N6        29.82R
SPOKANE        CLOUDY    51  46  83 SE6       29.85R
$$

REGIONAL REPORTS...ALBERTA

CITY           SKY/WX    TMP DP  RH WIND       PRES   REMARKS
EDMONTON       CLOUDY    46  41  81 E3        29.84R
CALGARY        LGT RAIN  45  39  81 NW6       29.86R
LETHBRIDGE     CLOUDY    45  41  87 W16       29.85R
MEDICINE HAT   CLOUDY    48  46  93 W14       29.79R
$$

REGIONAL REPORTS...SASKATCHEWAN

CITY           SKY/WX    TMP DP  RH WIND       PRES   REMARKS
SWIFT CURRENT  CLOUDY    46  46 100 W7        29.68R FOG
REGINA         MOCLDY    48  45  87 S8        29.67R
SASKATOON      TSTM      54  52  94 NE14G23   29.70R
$$




USA.gov is the U.S. government's official web portal to all federal, state and local government web resources and services.